Regional Weather Roundup
Issued by NWS

Home | Current Version | Previous Version | Graphics & Text | Print | Product List | Glossary On
Versions: 1 2 3 4 5 6 7 8 9 10 11 12 13 14 15 16 17 18 19 20 21 22 23 24 25 26 27 28 29 30 31 32 33 34 35 36 37 38 39 40 41 42 43 44 45 46 47 48 49 50
000
ASUS45 KPSR 021110
RWRAZ

ARIZONA REGIONAL HOURLY WEATHER ROUNDUP
NATIONAL WEATHER SERVICE PHOENIX AZ
400 AM MST MON MAR 02 2015

NOTE: FAIR INDICATES FEW OR NO CLOUDS BELOW 12,000 FEET WITH NO
SIGNIFICANT WEATHER AND/OR OBSTRUCTIONS TO VISIBILITY.

AZZ001>003-036-021200-
NORTHWEST ARIZONA

CITY           SKY/WX    TMP DP  RH WIND       PRES   REMARKS
BULLHEAD CITY  LGT RAIN  48  48 100 CALM      29.90F
KINGMAN        LGT RAIN  42  40  92 SW10      29.85F
$$

AZZ004>008-015-016-018-021200-
NORTH CENTRAL ARIZONA

CITY           SKY/WX    TMP DP  RH WIND       PRES   REMARKS
GRAND CANYON   FLURRIES  37  34  89 S9        29.87F WCI  30
PRESCOTT       CLOUDY    46  39  76 S12       29.89F
FLAGSTAFF      LGT RAIN  38  35  89 SW21G35   29.91F WCI  28
PAYSON         CLOUDY    46  45  93 S13G22    29.96F
PAGE           CLOUDY    37  34  89 CALM      29.87F
$$

AZZ009>014-017-021200-
NORTHEAST ARIZONA

CITY           SKY/WX    TMP DP  RH WIND       PRES   REMARKS
WINSLOW        PTCLDY    38  36  92 E6        29.92F WCI  33
SAINT JOHNS    PTCLDY    34  27  75 CALM      29.97F
WINDOW ROCK    CLEAR     39  34  82 S3        30.00F
SHOW LOW       MOCLDY    41  36  81 S16       30.01S
$$

AZZ023-021200-
GREATER PHOENIX AREA

CITY           SKY/WX    TMP DP  RH WIND       PRES   REMARKS
PHOENIX        CLOUDY    64  50  60 S7        29.87F
BUCKEYE        CLOUDY    61  48  63 SE7       29.88F
LUKE AFB       CLOUDY    62  49  60 SE5       29.86F
DEER VALLEY    CLOUDY    59  51  75 E3        29.87F
SCOTTSDALE     CLOUDY    62  50  64 SE3       29.89F
MESA-GATEWAY   CLOUDY    59  50  72 S6        29.92F
$$

AZZ027-028-021200-
SOUTHWEST MARICOPA COUNTY AND PINAL COUNTY

CITY           SKY/WX    TMP DP  RH WIND       PRES   REMARKS
CASA GRANDE    CLOUDY    63  46  55 S7        29.90F
GILA BEND      CLOUDY    64  49  58 S9        29.87F
$$

AZZ503-504-507>509-021200-
SOUTHEAST ARIZONA

CITY           SKY/WX    TMP DP  RH WIND       PRES   REMARKS
TUCSON         PTCLDY    60  44  55 SW7       29.97S
DAVIS-MONTHAN  CLOUDY    60  43  54 W13       29.94F
NOGALES        CLOUDY    55  44  66 S17G25    30.00F
SIERRA VISTA   MOCLDY    57  28  33 S10G25    29.98R
DOUGLAS        CLOUDY    58  32  37 S21G29    30.00F
SAFFORD        CLOUDY    58  35  42 VRB6      29.93F
$$

AZZ020-021-025-026-031-021200-
SOUTHWEST ARIZONA

CITY           SKY/WX    TMP DP  RH WIND       PRES   REMARKS
YUMA           LGT RAIN  54  51  90 E7        29.90F
$$

CAZ031-033-041-043-047-048-061-021200-
SOUTHERN CALIFORNIA

CITY           SKY/WX    TMP DP  RH WIND       PRES   REMARKS
DOWNTOWN L.A.  CLOUDY    51  47  86 CALM      29.89F
L.A. AIRPORT   MOCLDY    50  47  89 CALM      29.90F
SAN DIEGO      MOCLDY    53  47  79 E3        29.93F
BURBANK        MOCLDY    49  46  90 W6        29.88F
ONTARIO        MOCLDY    49  42  77 CALM      29.89F
RIVERSIDE      PTCLDY    49  42  77 CALM      29.90F
PALM SPRINGS   CLOUDY    51  48  89 S3        29.91F
EL CENTRO NAS  LGT RAIN  52  50  93 SE6       29.90F
IMPERIAL       LGT RAIN  52  50  93 S3        29.90F
BLYTHE         LGT RAIN  51  51 100 S6        29.89F
NEEDLES        LGT RAIN  50  47  89 SE3       29.87F
$$

NVZ020-UTZ003-021200-
SOUTHERN NEVADA-UTAH

CITY           SKY/WX    TMP DP  RH WIND       PRES   REMARKS
LAS VEGAS      CLOUDY    46  42  86 S6        29.79F
SALT LAKE CITY MOCLDY    37  31  78 SW6       29.84F WCI  32
$$

NMZ009-TXZ055-021200-
NEW MEXICO-WEST TEXAS

CITY           SKY/WX    TMP DP  RH WIND       PRES   REMARKS
ALBUQUERQUE    CLOUDY    37  31  78 N12       30.07F WCI  29
EL PASO        CLOUDY    56  31  38 VRB3      30.04F
$$


........................KEY........................
SKY/WX - SKY CONDITION/WEATHER
TMP    - TEMPERATURE IN FAHRENHEIT
DP     - DEW POINT IN FAHRENHEIT
RH     - RELATIVE HUMIDITY IN PERCENT
WIND   - DIRECTION AND SPEED IN MILES PER HOUR (MPH)
VRB    - VARIABLE WIND DIRECTION
PRES   - MEAN SEA LEVEL PRESSURE IN INCHES OF MERCURY
         F - FALLING PRESSURE   R - RISING PRESSURE
         S - STEADY PRESSURE
VSB    - VISIBILITY IN MILES
HX     - HEAT INDEX IN FAHRENHEIT
WCI    - WIND CHILL INDEX IN FAHRENHEIT
TC     - TEMPERATURE IN CELSIUS WHICH IS ALSO KNOWN AS
         TEMPERATURE IN CENTIGRADE
AFB    - AIR FORCE BASE
         LUKE AFB IS LUKE AIR FORCE BASE
         DAVIS-MONTHAN IS DAVIS-MONTHAN AIR FORCE BASE
NAS    - NAVAL AIR STATION
         EL CENTRO NAS IS EL CENTRO NAVAL AIR STATION
N/A    - NOT AVAILABLE


USA.gov is the U.S. government's official web portal to all federal, state and local government web resources and services.